Location: Noyers
(47.2770°N, 1.4032°E)
Time: 23:34:05
(UTC+00:00)

Okean 1 - Pass Details

Date: 15 May 2026
Orbit: 457 x 474 km, 82.5° (Epoch: 11 June)

Event Time Altitude Azimuth Distance (km) Brightness Sun altitude
Exits shadow 21:27:01 37° 133° (SE) 750 3.5 -16.2°
Maximum altitude 21:27:50 45° 94° (E) 658 3.4 -16.3°
Drops below altitude 10° 21:31:17 10° 21° (NNE) 1,651 6.2 -16.7°
Sets 21:33:27 0° 15° (NNE) 2,537 7.3 -16.9°
